Hourly Data Report for October 05, 2013

All times are specified in Local Standard Time (LST). Add 1 hour to adjust for Daylight Saving Time where and when it is observed.

ARVIAT A
NUNAVUT

61°05'38.000" N
94°04'18.000" W
10.40 m
2300427
71174
YEK

Download Data

Hourly Data (October 2013)
Hourly Data Report for October 5, 2013
Temp Definition
°C
Dew Point Temp Definition
°C
Rel Hum Definition
%
Wind Dir Definition
10's deg

Wind Spd Definition
km/h
Visibility Definition
km
Stn Press Definition
kPa
Hmdx Definition


Wind Chill Definition


Weather Definition


TIME
00:00 Legend Double Dagger -3.2 -7.2 74 24 8 16.1 102.61   -6 LegendNANA
01:00 Legend Double Dagger -3.5 -7.3 75 26 9 16.1 102.58   -7 LegendNANA
02:00 Legend Double Dagger -3.8 -7.9 73 27 13 16.1 102.59   -9 LegendNANA
03:00 Legend Double Dagger -3.8 -7.6 75 21 5 16.1 102.51   -6 LegendNANA
04:00 Legend Double Dagger -3.9 -7.5 76   0 16.1 102.46     LegendNANA
05:00 Legend Double Dagger -3.7 -6.9 79   0 16.1 102.46     LegendNANA
06:00 Legend Double Dagger -4.3 -6.6 84 10 5 16.1 102.38   -6 LegendNANA
07:00 Legend Double Dagger -4.2 -6.1 87 14 13 16.1 102.28   -9 LegendNANA
08:00 Legend Double Dagger -2.2 -4.5 84 14 17 16.1 102.20   -8 LegendNANA
09:00 Legend Double Dagger -0.9 -3.4 83 15 18 16.1 102.16   -6 LegendNANA
10:00 Legend Double Dagger 0.9 -2.0 81 15 24 16.1 102.09     LegendNANA
11:00 Legend Double Dagger 1.3 -1.9 79 20 21 16.1 102.01     LegendNANA
12:00 Legend Double Dagger 1.7 -1.2 81 20 24 16.1 101.96     LegendNANA
13:00 Legend Double Dagger 2.5 -2.0 72 17 32 16.1 101.83     LegendNANA
14:00 Legend Double Dagger 2.4 -1.9 73 18 33 16.1 101.78     LegendNANA
15:00 Legend Double Dagger 2.6 -0.9 78 18 35 16.1 101.69     LegendNANA
16:00 Legend Double Dagger 2.5 -1.1 77 18 35 16.1 101.59     LegendNANA
17:00 Legend Double Dagger 2.1 -1.6 77 17 35 16.1 101.53     LegendNANA
18:00 Legend Double Dagger 2.0 -0.7 83 16 35 16.1 101.45     LegendNANA
19:00 Legend Double Dagger 2.1 -1.9 75 17 41 16.1 101.36     LegendNANA
20:00 Legend Double Dagger 2.3 -1.7 75 17 46 16.1 101.29     LegendNANA
21:00 Legend Double Dagger 2.1 -1.3 78 17 37 16.1 101.25     LegendNANA
22:00 Legend Double Dagger 2.1 -1.3 78 17 41 16.1 101.19     LegendNANA
23:00 Legend Double Dagger 2.4 -0.6 80 17 37 16.1 101.10     LegendNANA

Notes on Data Quality.

Legend

  • E = Estimated
  • M = Missing
  • NA = Not Available
  • ‡ = Partner data that is not subject to review by the National Climate Archives
Date modified: